Montana Department of Transportation

Main Content

Accidents and Incidents Report

Hourly Weather Roundup

ASUS45 KTFX 220004
RWRMT 
MONTANA HOURLY WEATHER ROUNDUP
NATIONAL WEATHER SERVICE GREAT FALLS MT
504 PM MST FRI NOV 21 2014

NOTE: "FAIR" INDICATES FEW OR NO CLOUDS BELOW 12000 FEET WITH NO
SIGNIFICANT WEATHER AND/OR OBSTRUCTIONS TO VISIBILITY.

* THESE STATIONS ARE NOT UNDER NWS QUALITY CONTROL. THEY DO NOT
   REPORT WEATHER SUCH AS PRECIPITATION OR FOG.

MTZ001.007-043-220100-
WEST OF THE DIVIDE
CITY           SKY/WX    TMP DP  RH WIND       PRES   REMARKS
KALISPELL      FOG       34  30  85 NE3       29.74F 
MISSOULA       CLOUDY    34  28  79 SW3       29.77F 
BUTTE          CLOUDY    37  25  62 NW5       29.80F WCI  33 
MULLAN PASS    N/A       30  28  92 S10G20    29.70F WCI  21 
* ESSEX        N/A       33  32  96 N/A        N/A   
* LINCOLN      N/A       39  27  62 W4         N/A   
* LOOKOUT PASS N/A       35  32  89 SE4G10     N/A   
* POLSON       N/A       37  31  79 SE1        N/A   
* RONAN APT    CLOUDY    34  30  85 N/A        N/A   
* SEELEY LAKE  N/A       35  30  82 N2         N/A   
* THOMP F APT  CLOUDY    33  25  72 SE6G13     N/A   WCI  27 
* YAAK HILL    N/A       32  30  92 N/A        N/A   
--------------------------------

MTZ008-052.055-220100-
SOUTHWEST MONTANA
CITY           SKY/WX    TMP DP  RH WIND       PRES   REMARKS
BOZEMAN        MOCLDY    36  28  73 SE6       29.82F WCI  31 
DILLON         PTCLDY    36  28  73 SW8       29.82F WCI  30 
* W YELLOWSTON CLEAR     33  26  75 SW3G8      N/A   
* ENNIS APT    PTCLDY    37  27  67 SE17G22    N/A   WCI  27 
* THREE FORKS  MOCLDY    43  34  71 N/A        N/A   
* BOULDER HILL N/A       37  21  52 SW9G14     N/A   WCI  30 
* MONIDA PASS  N/A       28  24  85 SE18       N/A   WCI  15 
* RAYNOLDS PAS N/A       32  18  56 S9G17      N/A   WCI  24 
* WHITEHALL    N/A       42  23  47 S8G20      N/A   
* WISE RIVER   N/A       39  24  55 W5G12      N/A   WCI  35 
--------------------------------

MTZ009.010-012-014-046-048-049-054-220100-
EAST SLOPES AND CENTRAL MONTANA
CITY           SKY/WX    TMP DP  RH WIND       PRES   REMARKS
CUT BANK       PTCLDY    39  28  65 W15       29.65F WCI  31 
GREAT FALLS    MOCLDY    39  27  62 SW12      29.71F WCI  32 
HELENA         CLOUDY    45  27  49 CALM      29.76F 
* DEARBORN     N/A       48  25  41 SE9G15     N/A   
* EAST GLACIER N/A       37  28  70 W9G16      N/A   WCI  30 
* MONARCH      N/A       38  19  46 SW9G16     N/A   WCI  32 
* PENDROY      N/A       39  26  60 SW7G13     N/A   WCI  34 
* ROGERS PASS  N/A       36  25  64 SE7G12     N/A   WCI  30 
* SAINT MARY   N/A       38  31  76 S6G16      N/A   WCI  33 
* SWEET GRASS  N/A       39  31  73 SW21G26    N/A   WCI  29 
--------------------------------

MTZ011-013-016-021-035-040-045-047-050-051-220100-
NORTH CENTRAL MONTANA
CITY           SKY/WX    TMP DP  RH WIND       PRES   REMARKS
HAVRE          PTCLDY    39  32  76 SW14      29.67S WCI  31 
LEWISTOWN      MOCLDY    39  27  62 SW13      29.74S WCI  31 
* N BAR RANCH  HAZE      39  19  45 NW5       29.74S WCI  35 
* CHESTER      N/A       39  29  67 SW7G12     N/A   WCI  34 
* DENTON       N/A       41  23  49 W9         N/A   
* GEYSER       N/A       41  20  43 SW19G28    N/A   
* JUDITH GAP   N/A       41  20  43 SW7        N/A   
* LOMA         N/A       45  29  54 SW12G17    N/A   
--------------------------------

MTZ017.020-022.027-061-062-220100-
NORTHEAST MONTANA
CITY           SKY/WX    TMP DP  RH WIND       PRES   REMARKS
GLASGOW        CLEAR     37  30  76 W10       29.68S WCI  30 
GLENDIVE       PTCLDY    37  28  70 SW9       29.74S WCI  30 
JORDAN         CLEAR     34  28  79 CALM      29.72S 
SIDNEY         CLEAR     39  28  65 SW8       29.71S WCI  33 
WOLF POINT     CLEAR     37  30  76 W5        29.69R WCI  33 
* BEAVER HILL  N/A       39  28  65 SW14       N/A   WCI  31 
* CIRCLE       N/A       40  31  70 W4         N/A   
* LINDSAY DVD  N/A       40  29  65 SW13G19    N/A   WCI  32 
* NAVAJO       N/A       35  29  79 W13        N/A   WCI  26 
* SACO         N/A       38  30  73 SW7        N/A   WCI  33 
--------------------------------

MTZ028.042-056.058-220100-
SOUTHCENTRAL AND SOUTHEAST MONTANA
CITY           SKY/WX    TMP DP  RH WIND       PRES   REMARKS
BAKER          MOCLDY    39  28  65 SW9       29.76S WCI  33 
BILLINGS       FAIR      39  25  57 SW21      29.78F WCI  29 
LIVINGSTON     PTCLDY    45  25  45 W16       29.79F 
MILES CITY     CLEAR     39  28  65 SW10      29.75S WCI  32 
* LAUREL APT   CLEAR     39  23  53 S6         N/A   WCI  35 
* ALZADA       N/A       39  27  62 SW1G6      N/A   
* HYSHAM       N/A       45  19  35 W3         N/A   
* LAME DEER    N/A       41  24  51 SW6        N/A   
* REED POINT   N/A       48  21  34 W9         N/A   
* ROSCOE HILL  N/A       41  14  33 SE3G8      N/A   
--------------------------------

REGIONAL REPORTS...DAKOTAS
CITY           SKY/WX    TMP DP  RH WIND       PRES   REMARKS
WILLISTON      PTCLDY    39  30  70 W15       29.66S WCI  31 
DICKINSON      PTCLDY    37  28  70 W12       29.70S WCI  29 
BEACH          CLEAR     37  28  70 SW13      29.74R WCI  29 
CROSBY         CLEAR     39  34  82 SW13G20   29.61R WCI  31 
BISMARCK       CLEAR     39  30  70 SW12      29.70F WCI  32 
GRAND FORKS    PTCLDY    30  23  75 S18       29.63S WCI  18 
FARGO          MOCLDY    32  25  75 S17       29.72F WCI  21 
BUFFALO SD     PTCLDY    41  27  58 SW8       29.73R 
RAPID CITY     CLEAR     37  28  70 CALM      29.84S 
--------------------------------

REGIONAL REPORTS...WYOMING/IDAHO/WASHINGTON
CITY           SKY/WX    TMP DP  RH WIND       PRES   REMARKS
GILLETTE       CLEAR     32  27  82 CALM      29.84R 
SHERIDAN       PTCLDY    36  27  70 S5        29.81F WCI  32 
CODY           PTCLDY    45  23  42 SW15      29.83F 
YELLOWSTONE LA PTCLDY    28  21  75 W8        29.95S WCI  20 
SALMON         PTCLDY    27  19  72 SE3       29.87F 
MULLAN PASS    N/A       30  28  92 S10G20    29.70S WCI  21 
SAND POINT     LGT RAIN  34  34 100 CALM      29.73F VSB 1/2  
SPOKANE        LGT RAIN  39  36  89 SE8       29.66F WCI  33 

--------------------------------